TimeCST,TemperatureF,Dew PointF,Humidity,Sea Level PressureIn,VisibilityMPH,Wind Direction,Wind SpeedMPH,Gust SpeedMPH,PrecipitationIn,Events,Conditions,WindDirDegrees,DateUTC
12:08 AM,-9999,-9999,N/A,29.58,3.0,WNW,11.5,-,N/A,,Overcast,290,2012-12-16 06:08:00
12:49 AM,31.8,32.0,100,29.59,2.5,WNW,10.4,16.1,N/A,,Overcast,290,2012-12-16 06:49:00
1:08 AM,31.8,32.0,100,29.59,3.0,WNW,9.2,-,N/A,,Overcast,290,2012-12-16 07:08:00
1:29 AM,30.6,30.7,100,29.60,4.0,WNW,11.5,-,N/A,,Overcast,290,2012-12-16 07:29:00
1:48 AM,29.7,29.8,100,29.61,4.0,WNW,9.2,-,N/A,,Overcast,290,2012-12-16 07:48:00
2:09 AM,29.3,29.5,100,29.61,4.0,WNW,10.4,-,N/A,,Overcast,290,2012-12-16 08:09:00
2:29 AM,29.3,29.3,100,29.62,5.0,WNW,15.0,-,N/A,,Overcast,290,2012-12-16 08:29:00
2:48 AM,26.6,26.6,100,29.64,5.0,WNW,16.1,-,N/A,,Overcast,290,2012-12-16 08:48:00
3:09 AM,26.6,26.6,100,29.65,5.0,WNW,15.0,-,N/A,,Overcast,290,2012-12-16 09:09:00
3:49 AM,24.4,24.3,99,29.65,5.0,WNW,11.5,-,N/A,,Overcast,290,2012-12-16 09:49:00
4:08 AM,24.3,23.9,99,29.66,5.0,WNW,12.7,-,N/A,,Overcast,290,2012-12-16 10:08:00
4:28 AM,23.0,22.8,99,29.66,5.0,WNW,13.8,-,N/A,,Overcast,290,2012-12-16 10:28:00
4:48 AM,21.7,21.2,98,29.66,4.0,WNW,15.0,19.6,N/A,,Overcast,290,2012-12-16 10:48:00
5:09 AM,20.3,20.1,99,29.66,5.0,WNW,12.7,-,N/A,,Overcast,290,2012-12-16 11:09:00
5:29 AM,19.4,19.2,99,29.67,3.0,WNW,12.7,-,N/A,,Overcast,290,2012-12-16 11:29:00
5:49 AM,19.2,19.0,99,29.68,4.0,WNW,12.7,-,N/A,,Overcast,290,2012-12-16 11:49:00
6:08 AM,19.2,18.9,98,29.69,4.0,WNW,16.1,-,N/A,,Overcast,290,2012-12-16 12:08:00
6:29 AM,19.2,18.9,98,29.69,5.0,WNW,11.5,-,N/A,,Overcast,290,2012-12-16 12:29:00
6:48 AM,19.2,18.9,98,29.69,4.0,WNW,10.4,-,N/A,,Overcast,290,2012-12-16 12:48:00
7:09 AM,19.2,18.9,98,29.69,4.0,WNW,12.7,-,N/A,,Overcast,290,2012-12-16 13:09:00
7:28 AM,19.2,18.9,98,29.69,5.0,WNW,12.7,-,N/A,,Overcast,290,2012-12-16 13:28:00
7:49 AM,19.4,19.0,98,29.70,3.0,WNW,11.5,-,N/A,,Overcast,290,2012-12-16 13:49:00
8:08 AM,19.2,18.9,98,29.71,5.0,WNW,16.1,-,N/A,,Overcast,290,2012-12-16 14:08:00
8:29 AM,19.2,18.5,97,29.71,5.0,WNW,15.0,-,N/A,,Overcast,290,2012-12-16 14:29:00
8:48 AM,19.2,18.5,97,29.72,5.0,WNW,11.5,-,N/A,,Overcast,290,2012-12-16 14:48:00
9:09 AM,18.9,18.3,98,29.72,5.0,WNW,12.7,-,N/A,,Overcast,290,2012-12-16 15:09:00
9:28 AM,17.2,16.5,97,29.73,7.0,WNW,15.0,-,N/A,,Overcast,290,2012-12-16 15:28:00
9:49 AM,16.7,15.8,96,29.74,10.0,WNW,16.1,-,N/A,,Overcast,290,2012-12-16 15:49:00
10:09 AM,16.7,15.8,96,29.75,10.0,WNW,13.8,-,N/A,,Overcast,290,2012-12-16 16:09:00
10:28 AM,17.1,16.0,96,29.75,10.0,WNW,11.5,-,N/A,,Overcast,290,2012-12-16 16:28:00
10:48 AM,18.0,16.7,95,29.76,10.0,WNW,12.7,-,N/A,,Overcast,290,2012-12-16 16:48:00
11:09 AM,19.2,17.6,93,29.75,10.0,WNW,10.4,-,N/A,,Overcast,290,2012-12-16 17:09:00
11:28 AM,19.2,17.6,93,29.75,10.0,WNW,11.5,-,N/A,,Overcast,290,2012-12-16 17:28:00
11:49 AM,19.2,17.6,93,29.74,7.0,WNW,12.7,-,N/A,,Overcast,290,2012-12-16 17:49:00
12:08 PM,19.2,17.4,93,29.74,7.0,WNW,11.5,-,N/A,,Overcast,290,2012-12-16 18:08:00
12:29 PM,19.2,17.4,93,29.74,7.0,WNW,15.0,-,N/A,,Overcast,290,2012-12-16 18:29:00
12:49 PM,19.4,17.4,92,29.73,7.0,WNW,15.0,-,N/A,,Overcast,290,2012-12-16 18:49:00
1:08 PM,19.4,17.6,93,29.73,7.0,WNW,12.7,-,N/A,,Overcast,290,2012-12-16 19:08:00
1:29 PM,19.4,17.6,93,29.73,7.0,WNW,10.4,-,N/A,,Overcast,290,2012-12-16 19:29:00
1:48 PM,19.6,17.8,93,29.74,7.0,WNW,13.8,-,N/A,,Overcast,290,2012-12-16 19:48:00
2:09 PM,19.6,18.0,93,29.73,10.0,WNW,10.4,-,N/A,,Overcast,290,2012-12-16 20:09:00
2:29 PM,20.3,18.9,94,29.73,10.0,WNW,11.5,17.3,N/A,,Overcast,290,2012-12-16 20:29:00
2:48 PM,20.3,19.2,96,29.73,10.0,WNW,10.4,-,N/A,,Overcast,290,2012-12-16 20:48:00
3:09 PM,20.7,19.4,95,29.74,10.0,WNW,11.5,-,N/A,,Overcast,290,2012-12-16 21:09:00
3:29 PM,20.8,19.4,94,29.75,10.0,WNW,9.2,-,N/A,,Overcast,290,2012-12-16 21:29:00
3:48 PM,21.2,20.1,96,29.75,10.0,WNW,10.4,-,N/A,,Overcast,290,2012-12-16 21:48:00
4:08 PM,21.7,20.8,96,29.75,10.0,WNW,8.1,-,N/A,,Overcast,290,2012-12-16 22:08:00
4:28 PM,21.7,20.8,96,29.75,10.0,WNW,10.4,16.1,N/A,,Overcast,290,2012-12-16 22:28:00
4:49 PM,21.7,20.8,96,29.76,10.0,WNW,11.5,-,N/A,,Overcast,290,2012-12-16 22:49:00
5:08 PM,21.7,20.8,96,29.76,10.0,WNW,11.5,-,N/A,,Overcast,290,2012-12-16 23:08:00
5:29 PM,21.7,20.8,96,29.77,10.0,WNW,11.5,-,N/A,,Overcast,290,2012-12-16 23:29:00
5:42 PM,21.7,20.8,96,29.77,10.0,WNW,8.1,-,N/A,,Overcast,290,2012-12-16 23:42:00
6:10 PM,21.2,21.2,100,29.78,10.0,WNW,9.2,-,N/A,,Overcast,300,2012-12-17 00:10:00
6:30 PM,21.2,21.2,100,29.78,10.0,WNW,8.1,-,N/A,,Overcast,300,2012-12-17 00:30:00
6:50 PM,21.2,21.2,100,29.78,10.0,WNW,11.5,-,N/A,,Overcast,300,2012-12-17 00:50:00
7:10 PM,21.2,21.2,100,29.78,10.0,WNW,10.4,-,N/A,,Overcast,300,2012-12-17 01:10:00
7:23 PM,21.7,20.8,96,29.79,10.0,WNW,10.4,-,N/A,,Overcast,290,2012-12-17 01:23:00
7:29 PM,21.7,20.8,96,29.79,10.0,WNW,10.4,-,N/A,,Overcast,290,2012-12-17 01:29:00
7:48 PM,21.7,20.8,96,29.79,10.0,WNW,8.1,-,N/A,,Overcast,290,2012-12-17 01:48:00
8:09 PM,21.7,20.8,96,29.79,10.0,WNW,9.2,-,N/A,,Overcast,290,2012-12-17 02:09:00
8:27 PM,21.7,21.0,97,29.79,10.0,WNW,9.2,-,N/A,,Overcast,290,2012-12-17 02:27:00
8:49 PM,21.7,21.0,97,29.79,10.0,WNW,8.1,-,N/A,,Overcast,290,2012-12-17 02:49:00
9:08 PM,21.7,21.0,97,29.79,10.0,WNW,8.1,-,N/A,,Overcast,290,2012-12-17 03:08:00
9:29 PM,21.7,21.0,97,29.80,10.0,WNW,9.2,-,N/A,,Overcast,290,2012-12-17 03:29:00
9:48 PM,21.7,21.0,97,29.81,10.0,WNW,5.8,-,N/A,,Overcast,290,2012-12-17 03:48:00
10:09 PM,21.7,21.0,97,29.80,10.0,WNW,6.9,-,N/A,,Overcast,290,2012-12-17 04:09:00
10:29 PM,21.7,21.0,97,29.80,10.0,WNW,5.8,-,N/A,,Overcast,290,2012-12-17 04:29:00
10:48 PM,21.7,21.0,97,29.80,10.0,WNW,3.5,-,N/A,,Overcast,290,2012-12-17 04:48:00
11:09 PM,21.7,21.0,97,29.80,10.0,NW,8.1,-,N/A,,Overcast,320,2012-12-17 05:09:00
11:29 PM,20.8,20.1,97,29.80,10.0,North,3.5,-,N/A,,Overcast,360,2012-12-17 05:29:00
11:49 PM,21.0,20.3,97,29.79,10.0,North,5.8,-,N/A,,Overcast,350,2012-12-17 05:49:00